Regional Weather Roundup
Issued by NWS Austin/San Antonio, TX

Current Version | Previous Version | Text Only | Print | Product List | Glossary On
Versions: 1 2 3 4 5 6 7 8 9 10 11 12 13 14 15 16 17 18 19 20 21 22 23 24 25 26 27 28 29 30 31 32 33 34 35 36 37 38 39 40 41 42 43 44 45 46 47 48 49 50
000
ASUS44 KEWX 051210
RWREWX
SOUTH TEXAS REGIONAL WEATHER ROUNDUP
NATIONAL WEATHER SERVICE AUSTIN/SAN ANTONIO TX
700 AM CDT SUN JUL 05 2020

NOTE: "FAIR" INDICATED FEW OR NO CLOUDS BELOW 12,000 FEET WITH NO
SIGNIFICANT WEATHER AND/OR OBSTRUCTIONS TO VISIBILITY.

* - THESE STATIONS ARE NOT NWS OR FAA STATIONS...AND ARE NOT SUBJECT
    TO NWS AND FAA QUALITY CONTROL.

TXZ171-172-183>190-051300-
TEXAS HILL COUNTRY AND EDWARDS PLATEAU

CITY           SKY/WX    TMP DP  RH WIND       PRES   REMARKS
JUNCTION       CLEAR     72  67  84 CALM      29.94S
6HR MIN TEMP:  72; 6HR MAX TEMP:  84;

*LLANO         PTCLDY    73  66  78 CALM      29.92S
BURNET         PTCLDY    75  67  76 SW5       29.92S
6HR MIN TEMP:  75; 6HR MAX TEMP:  82;

*HORSESHOE BAY PTCLDY    79  70  73 CALM      29.90S
*LAGO VISTA    PTCLDY    77  69  76 SW7       29.90F
6HR MIN TEMP:  77; 6HR MAX TEMP:  81;

*KERRVILLE     CLEAR     73  69  87 CALM      29.94S
6HR MIN TEMP:  73; 6HR MAX TEMP:  79;

*FREDERICKSBRG PTCLDY    72  69  92 CALM      29.94S
6HR MIN TEMP:  72; 6HR MAX TEMP:  80;

*ROCKSPRINGS     N/A     73  70  88 S6        30.01S
*BOERNE        CLEAR     72  70  94 CALM      29.94S
*CASTROVILLE   CLEAR     74  71  91 MISG      29.92R
HONDO          CLEAR     71  67  87 MISG      29.91R
6HR MIN TEMP:  70; 6HR MAX TEMP:  82;

*UVALDE          N/A     72  72 100 NE5       29.92S
6HR MIN TEMP:  72; 6HR MAX TEMP:  83;

DEL RIO        CLEAR     80  68  66 E9        29.87R
6HR MIN TEMP:  80; 6HR MAX TEMP:  90;

*LAUGHLIN AFB  CLEAR     77  70  78 E9        29.88R
6HR MIN TEMP:  75; 6HR MAX TEMP:  87;

*SPOFFORD      NOT AVBL
*EAGLE PASS    NOT AVBL
CARRIZO SPRGS  CLEAR     73  64  73 E3        29.87R
$$

TXZ173-191>194-202-209-217>225-228-051300-
CENTRAL AND SOUTH CENTRAL TEXAS

CITY           SKY/WX    TMP DP  RH WIND       PRES   REMARKS
GEORGETOWN     PTCLDY    77  70  79 S6        29.90R
6HR MIN TEMP:  77; 6HR MAX TEMP:  84;

*TAYLOR        PTCLDY    74  72  93 S8        29.88S
6HR MIN TEMP:  73; 6HR MAX TEMP:  80;

AUSTIN/BERGSTM MOCLDY    74  72  93 S6        29.88R
6HR MIN TEMP:  72; 6HR MAX TEMP:  80;

AUSTIN/MABRY   PTCLDY    76  69  79 VRB3      29.89S
6HR MIN TEMP:  75; 6HR MAX TEMP:  83;

*PFLUGERVILLE  PTCLDY    73  72  94 CALM      29.89S
SAN MARCOS     CLEAR     73  72  96 S7        29.90S
6HR MIN TEMP:  73; 6HR MAX TEMP:  80;

NEW BRAUNFELS  CLEAR     75  71  87 SW3       29.88S
6HR MIN TEMP:  73; 6HR MAX TEMP:  83; 6HR PCP: TRACE;

*RANDOLPH AFB  CLEAR     75  74  96 SW3       29.89S
6HR MIN TEMP:  75; 6HR MAX TEMP:  81;

*SEGUIN        FOG       72  71  95 CALM      29.93S VSB 1/2
6HR MIN TEMP:  72; 6HR MAX TEMP:  78;

SAN ANTONIO    PTCLDY    77  72  84 CALM      29.90S
6HR MIN TEMP:  76; 6HR MAX TEMP:  83;

STINSON FIELD  CLEAR     72  72 100 CALM      29.88R
6HR MIN TEMP:  72; 6HR MAX TEMP:  80;

*KELLY FIELD   CLEAR     73  70  92 CALM      29.88S
6HR MIN TEMP:  73; 6HR MAX TEMP:  82;

*PLEASANTON    CLEAR     73  72  96 CALM      29.90R FOG
6HR MIN TEMP:  73; 6HR MAX TEMP:  80;

*KENEDY        MOCLDY    76  73  92 CALM      29.91R
6HR MIN TEMP:  75; 6HR MAX TEMP:  78;

*LA GRANGE     MOCLDY    77  77 100 CALM      29.88R
6HR MIN TEMP:  76; 6HR MAX TEMP:  80;

*GIDDINGS      MOCLDY    74  73  94 S5        29.90S
6HR MIN TEMP:  74; 6HR MAX TEMP:  83;

*GONZALES      CLOUDY    76  76 100 S3        29.89S
6HR MIN TEMP:  75; 6HR MAX TEMP:  79;

$$

TXZ163>164-176>182-195>201-210>213-226-227-235-051300-
SOUTHEAST TEXAS

CITY           SKY/WX    TMP DP  RH WIND       PRES   REMARKS
COLLEGE STN    PTCLDY    76  74  93 S6        29.88S
6HR MIN TEMP:  76; 6HR MAX TEMP:  80;

*BRYAN         PTCLDY    77  77 100 S5        29.90R
6HR MIN TEMP:  77; 6HR MAX TEMP:  83;

*CALDWELL      PTCLDY    73 N/A N/A S6        29.89S
6HR MIN TEMP:  74; 6HR MAX TEMP:  80;

*CROCKETT      NOT AVBL
*BRENHAM       MOCLDY    78  75  91 SW6       29.90S
6HR MIN TEMP:  77; 6HR MAX TEMP:  81;

HUNTSVILLE     MOCLDY    78  73  84 SW5       29.88S
6HR MIN TEMP:  78; 6HR MAX TEMP:  82;

CONROE         MOCLDY    78  75  90 SW5       29.89S
6HR MIN TEMP:  77; 6HR MAX TEMP:  81;

HOUSTON BUSH   PTCLDY    79  75  87 SW8       29.88S
6HR MIN TEMP:  79; 6HR MAX TEMP:  83;

HOUSTON HOBBY  PTCLDY    78  75  90 SW5       29.88S
6HR MIN TEMP:  78; 6HR MAX TEMP:  81;

*HOUSTON SW AP FOG       72  72 100 CALM      29.90S VSB<1/4
6HR MIN TEMP:  72; 6HR MAX TEMP:  76;

PEARLAND       CLEAR     77  73  87 CALM      29.90S FOG
6HR MIN TEMP:  77; 6HR MAX TEMP:  81;

HOUSTON HOOKS  CLOUDY    78  74  87 SW6       29.89R
6HR MIN TEMP:  77; 6HR MAX TEMP:  82;

ELLINGTON FLD  PTCLDY    77  75  94 SW5       29.88R
SUGAR LAND     MOCLDY    76  75  97 S5        29.88S
6HR MIN TEMP:  75; 6HR MAX TEMP:  79;

*HOUSTON EXEC    N/A     77  77 100 CALM      29.90S
*CLEVELAND MUN CLEAR     74  73  97 CALM      29.89S FOG
6HR MIN TEMP:  74; 6HR MAX TEMP:  79;

*WHARTON       PTCLDY    72  71  96 CALM      29.90S
6HR MIN TEMP:  72; 6HR MAX TEMP:  76;

*COLUMBUS      CLOUDY    76  75  95 SW5       29.91R
6HR MIN TEMP:  75; 6HR MAX TEMP:  77;

*EAGLE LAKE    MOCLDY    79  77  94 SW8       29.89S
6HR MIN TEMP:  77; 6HR MAX TEMP:  80;

$$

TXZ214>216-236>238-051300-
THE UPPER TEXAS COAST

CITY           SKY/WX    TMP DP  RH WIND       PRES   REMARKS
*ORANGE        CLEAR     80  77  90 CALM      29.90S
6HR MIN TEMP:  80; 6HR MAX TEMP:  82;

PORT ARTHUR    CLEAR     76  76 100 SW3       29.88R
6HR MIN TEMP:  76; 6HR MAX TEMP:  79;

GALVESTON      CLEAR     82  77  84 SW9       29.90R HX  90
6HR MIN TEMP:  82; 6HR MAX TEMP:  83;

ANGLETON       CLEAR     75  74  96 CALM      29.90R FOG
6HR MIN TEMP:  75; 6HR MAX TEMP:  78;

*BAY CITY      CLEAR     78  77  99 CALM      29.90R
PALACIOS       MOCLDY    83  76  79 SW8       29.89R HX  91
6HR MIN TEMP:  82; 6HR MAX TEMP:  84;

$$

TXZ229>234-239>247-051300-
TEXAS COASTAL BEND AND RIO GRANDE PLAINS

CITY           SKY/WX    TMP DP  RH WIND       PRES   REMARKS
VICTORIA       MOCLDY    78  75  90 CALM      29.90R
6HR MIN TEMP:  77; 6HR MAX TEMP:  78;

*BEEVILLE      CLOUDY    78  78 100 S10       29.88R
6HR MIN TEMP:  76; 6HR MAX TEMP:  78;

ROCKPORT       PTCLDY    80  75  84 VRB5      29.88R
6HR MIN TEMP:  80; 6HR MAX TEMP:  82;

*PORT ARANSAS  CLOUDY    80  77  90 S13       29.90R
6HR MIN TEMP:  80; 6HR MAX TEMP:  82;

*PORT LAVACA   MOCLDY    79  77  93 S3        29.89R
6HR MIN TEMP:  77; 6HR MAX TEMP:  80;

*INGLESIDE     PTCLDY    81  78  93 S10G16    29.87S
CORPUS CHRISTI PTCLDY    74  74 100 SE6       29.88R
6HR MIN TEMP:  74; 6HR MAX TEMP:  78;

CORPUS NAS     PTCLDY    78  78 100 S10       29.87S
6HR MIN TEMP:  77; 6HR MAX TEMP:  81;

*ROBSTOWN      CLEAR     74  72  92 S5        29.88R
6HR MIN TEMP:  73; 6HR MAX TEMP:  78;

ALICE          CLOUDY    77  76  96 S12       29.87R
6HR MIN TEMP:  76; 6HR MAX TEMP:  78;

KINGSVILLE NAS MOCLDY   N/A N/A N/A S5        29.87R
COTULLA        CLEAR     74  71  91 CALM      29.87R
6HR MIN TEMP:  74; 6HR MAX TEMP:  85;



USA.gov is the U.S. government's official web portal to all federal, state and local government web resources and services.